Wind_Speed
18 18 18 18 17 18 18 19 19 19 20 21 22 20 19 19 19 19 20 20 20 20 19 19 19 19 19 19 19 20 20 20 20 20 20 21 21 21 20 20 20 20 20
19 19 19 19 18 19 19 20 21 21 22 22 22 21 21 21 21 21 21 21 21 21 21 21 21 21 20 20 20 20 21 22 21 20 20 21 21 21 21 21 21 21 21
18 19 19 19 19 20 20 21 22 22 23 22 22 22 22 23 23 23 23 22 22 22 22 23 23 23 22 22 22 22 22 22 22 21 21 21 21 22 22 22 22 22 22
20 20 20 20 20 20 21 21 22 22 23 23 23 23 23 23 23 23 23 23 23 23 24 25 25 24 24 23 23 23 23 24 24 23 23 22 22 23 23 23 23 24 23
21 21 21 21 21 21 22 22 23 23 23 24 24 24 24 24 24 24 24 24 24 24 25 25 25 25 25 25 25 25 25 25 25 25 24 24 23 23 24 24 24 24 24
21 21 21 21 21 22 23 23 24 24 25 25 25 25 25 26 26 27 27 27 26 26 25 25 26 25 26 26 26 26 26 26 26 26 25 24 24 24 24 24 25 24 24
23 22 22 22 23 24 24 25 25 25 25 25 26 26 26 26 27 28 28 28 27 27 26 26 26 26 27 27 27 27 27 26 26 26 26 25 25 25 25 25 25 25 25
25 24 24 24 24 25 25 25 26 26 26 26 26 26 26 26 27 27 28 28 28 27 27 27 27 27 27 27 28 28 28 27 26 27 27 27 26 26 26 26 26 26 26
26 26 26 26 26 25 25 25 26 27 27 27 27 26 26 26 27 27 28 29 28 28 28 27 27 27 26 27 28 27 26 26 27 27 27 27 27 27 27 27 26 26 26
27 27 27 27 27 27 27 27 27 27 27 27 27 27 27 27 27 27 27 28 28 28 28 28 28 28 27 27 28 27 26 26 27 28 28 28 28 28 27 26 26 26 26
28 29 29 29 28 28 28 28 27 28 28 27 27 27 27 28 28 27 27 27 28 28 28 28 28 28 28 28 27 27 27 27 28 28 28 29 28 28 28 28 27 27 27
29 30 29 29 29 28 28 27 27 27 27 27 27 27 27 27 27 27 27 28 29 29 29 29 28 28 28 27 27 27 28 28 28 28 29 29 28 28 28 28 28 28 28
29 29 28 28 28 27 26 27 27 27 27 27 26 26 26 26 26 26 26 27 28 28 29 29 29 29 29 28 27 27 28 28 28 28 28 28 28 29 29 29 30 29 28
28 27 26 26 27 27 26 26 26 26 26 26 26 25 25 25 25 25 25 26 26 27 27 27 27 27 28 28 27 27 27 27 27 28 28 28 28 29 29 29 29 29 29
27 27 27 27 26 27 27 26 26 26 26 26 25 25 25 24 24 24 25 25 25 25 26 26 26 27 28 27 27 27 27 27 26 26 27 28 29 29 30 29 29 29 30
27 27 27 26 27 27 27 26 26 26 26 26 25 24 24 24 24 24 24 24 23 23 23 24 25 26 25 25 25 26 26 26 26 26 27 27 28 29 30 30 30 30 30
26 26 26 26 27 27 27 26 26 26 26 26 26 25 25 24 24 24 24 24 24 23 23 23 23 23 24 24 24 24 24 25 25 26 26 27 28 28 29 29 30 29 29
27 27 27 27 27 27 27 27 27 27 26 26 25 25 25 25 25 25 25 25 25 24 24 23 23 23 24 24 24 24 25 25 25 26 26 26 27 27 28 28 28 28 28
27 27 27 27 27 27 27 26 26 26 26 25 25 25 25 25 25 25 25 24 24 24 24 23 23 23 24 25 25 25 26 26 26 26 26 26 27 27 28 28 29 28 28
27 27 27 27 27 27 27 26 26 26 25 24 24 24 24 24 23 23 24 24 24 24 24 24 24 24 25 26 27 27 27 26 26 26 27 27 26 26 27 27 28 28 27
26 26 27 27 26 27 26 26 26 25 24 24 24 24 23 23 23 23 24 24 24 25 25 24 24 24 24 25 25 26 26 26 26 26 26 26 26 27 27 27 28 28 28
26 25 24 25 25 25 25 25 24 24 23 24 24 25 24 24 24 24 24 24 24 25 26 27 26 26 26 25 25 25 26 26 27 26 26 26 27 27 26 27 28 28 28
24 24 24 24 25 25 25 25 25 24 24 24 25 24 24 24 25 25 25 25 25 26 26 26 26 27 27 26 26 26 25 25 26 26 26 26 27 28 28 28 28 28 27
24 24 24 23 23 23 23 23 24 24 24 24 24 24 23 24 25 25 25 25 26 26 26 26 26 26 26 26 25 25 26 26 26 26 27 27 28 28 28 28 28 28 28
23 23 23 23 23 23 23 23 23 24 24 24 23 23 24 24 25 26 26 26 26 26 26 26 26 26 26 26 27 26 25 25 26 26 27 27 27 27 28 28 28 27 27
22 23 23 24 23 23 23 23 23 23 24 24 23 24 24 25 26 27 27 27 27 27 27 27 27 27 27 26 27 27 28 27 27 27 27 27 28 28 29 28 28 28 28
Wind_Direction
275 276 277 276 271 267 265 267 269 270 272 276 275 274 274 276 275 273 274 276 276 277 276 277 279 281 279 279 279 278 278 279 277 279 281 282 281 282 283 281 281 281 282
276 277 277 274 271 270 268 269 270 271 274 276 275 273 275 277 276 277 277 276 279 279 278 278 280 281 280 279 280 280 280 279 279 280 281 283 281 281 281 280 281 281 282
276 278 276 274 272 271 270 270 271 272 275 278 277 276 276 277 277 276 277 278 279 279 279 279 280 281 281 280 279 280 281 280 280 279 279 282 281 280 280 280 281 280 281
276 276 277 275 275 274 274 274 274 275 277 279 280 278 276 276 277 276 276 278 279 280 280 280 281 281 282 281 279 278 279 279 279 278 277 280 280 279 280 280 280 280 280
277 277 276 276 275 275 275 276 276 277 277 278 279 278 277 276 275 274 275 277 279 281 281 280 279 279 280 280 279 278 278 277 276 276 276 277 278 279 281 281 280 280 280
276 277 276 275 275 276 276 277 278 278 277 278 277 277 277 277 275 273 274 275 277 279 280 280 279 280 281 279 278 278 277 276 275 275 275 276 279 279 279 280 281 281 281
273 275 275 276 277 277 277 278 279 279 280 279 278 278 277 277 276 275 275 276 276 278 279 279 280 281 281 280 279 278 276 274 273 273 274 276 277 277 277 278 279 280 281
270 271 273 274 276 278 278 278 279 280 280 281 281 280 280 278 277 277 277 277 278 278 278 277 278 279 280 279 278 278 278 276 273 273 274 275 276 277 277 278 279 279 279
268 269 271 272 274 276 278 279 279 280 280 280 281 281 282 281 281 280 278 277 277 277 277 277 277 279 281 280 280 279 279 277 274 274 274 275 276 277 278 277 277 278 278
268 269 270 271 273 274 276 277 278 278 279 279 281 281 281 281 281 279 278 278 277 277 277 277 278 279 279 279 279 279 280 279 277 275 274 274 273 273 276 276 276 277 277
268 269 269 270 271 273 274 276 276 276 277 278 279 280 280 280 280 279 278 278 277 278 277 276 275 276 278 279 279 278 278 279 277 275 272 271 271 272 274 275 275 275 276
269 269 269 270 271 272 273 274 275 276 276 277 278 279 279 280 280 279 277 278 278 278 279 276 274 275 277 279 280 279 278 279 278 276 273 270 270 271 273 274 274 275 276
270 270 271 270 270 272 273 274 275 277 277 275 278 280 280 281 280 280 278 278 278 279 278 277 276 275 276 277 278 279 278 278 279 277 274 271 271 272 273 273 274 275 276
269 270 269 270 270 271 273 275 276 277 277 277 278 280 281 282 282 280 280 281 280 279 278 278 277 277 277 277 278 279 280 280 280 279 277 274 274 273 274 275 275 274 275
269 268 267 268 270 272 273 274 275 277 278 279 280 281 281 283 284 283 282 283 283 281 280 278 278 279 280 279 277 278 279 278 279 281 279 276 275 274 273 275 275 274 275
271 269 267 268 270 272 273 274 275 276 277 278 279 280 281 282 284 284 285 286 285 284 284 283 280 280 280 280 281 280 279 280 281 280 280 279 277 275 273 274 275 274 273
272 269 266 267 268 270 271 273 273 274 275 275 276 277 280 281 283 283 284 286 287 286 285 285 283 281 281 281 281 283 283 282 282 283 281 279 277 275 274 274 275 273 272
271 269 267 267 268 269 270 271 273 274 273 272 274 276 278 280 281 282 282 283 284 285 285 285 283 282 282 283 283 283 285 285 286 285 283 282 281 279 277 275 275 274 271
268 268 267 267 268 268 269 271 271 273 274 273 274 275 276 278 279 280 280 281 283 284 284 284 284 282 281 283 283 282 284 284 285 285 285 284 284 282 279 278 277 275 273
265 265 266 267 267 267 269 271 273 273 272 272 273 275 277 279 278 278 279 281 282 283 283 283 283 282 282 283 283 282 282 282 283 285 285 284 284 283 282 280 279 277 275
265 264 265 266 267 268 271 271 271 271 270 271 272 274 276 279 279 278 279 280 281 282 282 283 283 282 284 284 284 285 284 282 282 284 284 284 283 282 283 282 280 279 277
264 263 265 267 268 272 271 269 270 271 271 271 272 274 276 278 278 279 279 279 279 280 280 282 282 282 284 286 284 283 283 284 287 287 286 285 283 282 283 284 284 282 278
267 267 268 269 270 271 269 270 270 269 271 272 272 274 276 278 279 279 280 280 281 282 282 283 283 284 284 285 286 286 285 286 286 286 286 285 283 283 284 284 284 282 280
266 267 270 271 272 274 274 272 270 269 270 270 270 272 275 277 278 279 280 281 282 282 283 284 284 284 283 284 285 287 287 287 288 290 289 287 284 283 284 284 284 283 281
267 268 269 271 273 275 274 273 272 271 271 270 269 272 275 277 279 281 280 280 280 281 281 282 283 283 284 285 285 285 286 286 286 287 288 287 286 287 287 287 287 285 282
269 270 269 270 272 273 273 273 272 271 272 272 273 275 278 279 281 283 283 281 280 280 280 280 281 282 283 283 283 284 284 285 286 287 287 286 285 286 287 288 287 285 282
Height
5817 5817 5818 5818 5818 5819 5820 5821 5821 5822 5822 5822 5822 5823 5823 5824 5824 5824 5824 5824 5823 5823 5823 5822 5822 5822 5822 5821 5821 5821 5820 5820 5820 5821 5820 5820 5819 5819 5819 5818 5818 5818 5818
5813 5813 5813 5814 5814 5815 5816 5817 5817 5817 5818 5817 5817 5818 5818 5818 5818 5818 5818 5818 5818 5818 5817 5817 5817 5816 5816 5816 5815 5815 5815 5814 5815 5815 5815 5814 5814 5813 5813 5813 5813 5813 5812
5808 5809 5809 5809 5810 5811 5811 5812 5812 5813 5813 5812 5812 5813 5813 5813 5813 5813 5813 5813 5812 5812 5811 5811 5811 5810 5810 5810 5809 5809 5808 5808 5808 5808 5808 5808 5808 5808 5807 5807 5807 5807 5806
5804 5804 5804 5805 5805 5806 5806 5807 5807 5808 5808 5807 5807 5807 5807 5807 5807 5807 5807 5807 5806 5806 5805 5804 5804 5804 5803 5803 5803 5802 5802 5802 5801 5801 5802 5802 5802 5801 5801 5801 5801 5800 5800
5799 5799 5800 5800 5800 5801 5801 5802 5802 5802 5802 5802 5801 5801 5801 5801 5801 5801 5801 5800 5800 5799 5799 5798 5797 5797 5796 5796 5796 5795 5795 5795 5794 5794 5794 5795 5795 5795 5794 5794 5793 5793 5793
5793 5794 5794 5794 5795 5795 5795 5795 5796 5796 5795 5795 5795 5795 5795 5795 5795 5795 5794 5794 5793 5793 5792 5791 5790 5789 5789 5788 5788 5788 5787 5787 5787 5787 5787 5787 5788 5788 5787 5787 5786 5786 5786
5788 5788 5789 5789 5789 5789 5789 5789 5789 5789 5789 5788 5788 5788 5788 5787 5787 5787 5787 5786 5786 5786 5785 5784 5783 5782 5781 5781 5780 5779 5779 5778 5779 5779 5779 5780 5780 5780 5780 5780 5779 5779 5779
5782 5782 5782 5783 5783 5782 5782 5782 5782 5782 5782 5781 5781 5780 5780 5780 5780 5780 5779 5779 5778 5778 5777 5777 5776 5775 5774 5773 5772 5771 5770 5770 5770 5771 5772 5772 5772 5772 5772 5772 5771 5771 5771
5775 5776 5776 5776 5776 5776 5775 5775 5775 5775 5774 5774 5773 5773 5773 5772 5772 5772 5771 5770 5770 5770 5769 5768 5768 5767 5767 5765 5764 5764 5763 5762 5762 5762 5763 5763 5764 5763 5763 5763 5763 5763 5763
5768 5768 5768 5768 5768 5768 5768 5768 5768 5767 5767 5767 5766 5766 5765 5765 5764 5763 5763 5762 5762 5762 5761 5760 5760 5759 5759 5757 5756 5755 5755 5755 5754 5754 5755 5755 5756 5756 5755 5755 5755 5755 5755
5760 5760 5760 5760 5760 5760 5760 5760 5760 5760 5759 5759 5759 5758 5757 5757 5756 5755 5755 5754 5754 5753 5753 5753 5752 5751 5750 5749 5748 5747 5747 5747 5746 5746 5746 5747 5747 5747 5747 5747 5747 5747 5747
5752 5752 5752 5752 5752 5752 5752 5752 5752 5752 5752 5751 5751 5750 5750 5749 5748 5748 5747 5746 5746 5745 5744 5744 5743 5743 5741 5741 5740 5739 5739 5738 5738 5737 5738 5738 5739 5739 5739 5739 5739 5738 5738
5743 5743 5743 5743 5744 5744 5744 5744 5744 5744 5744 5743 5743 5743 5742 5741 5741 5740 5739 5738 5737 5736 5736 5735 5735 5734 5733 5733 5732 5731 5731 5730 5729 5729 5729 5729 5730 5730 5730 5730 5730 5729 5729
5735 5735 5735 5735 5736 5736 5737 5736 5736 5736 5735 5735 5735 5735 5734 5734 5733 5732 5731 5730 5729 5728 5727 5727 5726 5725 5725 5725 5724 5724 5723 5722 5721 5721 5721 5721 5721 5721 5721 5721 5721 5721 5721
5727 5727 5727 5728 5728 5729 5729 5729 5729 5729 5728 5728 5728 5727 5727 5726 5726 5725 5724 5723 5721 5720 5719 5719 5718 5717 5717 5716 5716 5716 5715 5714 5714 5713 5712 5712 5712 5712 5712 5712 5711 5712 5712
5718 5718 5719 5720 5720 5721 5721 5721 5721 5722 5721 5721 5721 5720 5720 5719 5719 5718 5717 5715 5714 5713 5712 5711 5710 5710 5709 5709 5709 5708 5707 5707 5706 5705 5704 5704 5703 5703 5702 5702 5702 5702 5702
5710 5711 5711 5712 5712 5713 5713 5713 5714 5714 5714 5713 5713 5713 5713 5712 5711 5710 5710 5709 5708 5707 5705 5704 5703 5703 5703 5702 5702 5701 5700 5700 5699 5697 5696 5695 5695 5694 5693 5693 5693 5693 5693
5702 5703 5703 5704 5704 5705 5705 5705 5706 5705 5706 5706 5706 5705 5705 5705 5704 5703 5702 5701 5701 5700 5699 5697 5697 5696 5696 5695 5695 5694 5693 5692 5691 5690 5688 5687 5686 5686 5685 5684 5684 5684 5684
5695 5695 5695 5696 5696 5696 5697 5696 5697 5697 5698 5698 5698 5698 5698 5697 5697 5696 5695 5694 5693 5693 5692 5691 5690 5690 5689 5688 5687 5687 5686 5685 5684 5683 5681 5680 5679 5678 5677 5676 5676 5676 5675
5687 5687 5688 5688 5689 5689 5689 5689 5689 5690 5690 5690 5691 5691 5690 5690 5689 5689 5688 5687 5686 5686 5685 5684 5683 5683 5682 5681 5680 5679 5678 5677 5676 5675 5674 5672 5671 5670 5669 5668 5668 5667 5667
5679 5679 5680 5681 5681 5681 5681 5681 5682 5682 5683 5683 5683 5683 5683 5682 5682 5681 5681 5680 5679 5678 5677 5676 5675 5675 5674 5673 5672 5671 5670 5669 5668 5667 5665 5664 5663 5662 5661 5660 5659 5659 5658
5671 5672 5673 5673 5674 5673 5674 5674 5675 5675 5675 5676 5676 5676 5676 5675 5675 5674 5673 5673 5672 5671 5670 5669 5668 5666 5665 5665 5663 5662 5662 5661 5660 5659 5657 5657 5656 5654 5653 5652 5651 5650 5649
5664 5665 5666 5666 5666 5666 5666 5667 5667 5668 5668 5668 5668 5668 5668 5668 5667 5667 5666 5665 5664 5663 5662 5661 5660 5659 5658 5657 5656 5655 5654 5653 5652 5651 5649 5648 5647 5646 5645 5644 5643 5641 5640
5659 5659 5659 5660 5660 5660 5659 5659 5660 5660 5660 5660 5661 5661 5660 5660 5659 5659 5658 5657 5656 5655 5654 5653 5652 5651 5650 5649 5648 5647 5646 5645 5644 5642 5641 5640 5639 5638 5636 5635 5634 5632 5632
5652 5653 5653 5653 5653 5653 5653 5653 5653 5653 5653 5653 5653 5653 5653 5652 5652 5651 5650 5649 5648 5647 5646 5645 5644 5643 5643 5642 5640 5639 5638 5637 5636 5634 5633 5632 5630 5629 5628 5626 5625 5623 5623
5646 5646 5646 5646 5647 5646 5646 5646 5646 5646 5646 5646 5646 5645 5645 5644 5643 5642 5641 5641 5640 5639 5638 5637 5637 5636 5635 5634 5632 5631 5630 5629 5627 5626 5624 5623 5622 5620 5619 5617 5616 5614 5614